Reading, PA

2:56 PM EST on November 20, 2019 (GMT -0500)
Reading Regional-Spaatz

Weather History for KRDG - July, 2019

Change the Weather History Date:

Friday, July 12, 2019

  Actual Average Record
Temperature  
Mean Temperature 79 °F 75 °F  
Max Temperature 88 °F 86 °F 97 °F (1988)
Min Temperature 70 °F 65 °F 48 °F (1978)
Degree Days  
Heating Degree Days 0 0  
Month to date heating degree days 0 0  
Since 1 June heating degree days 16 24  
Since 1 July heating degree days 0 0  
Cooling Degree Days 14 10  
Month to date cooling degree days 156 117  
Year to date cooling degree days 466 366  
Since 1 June cooling degree days 361 306  
Growing Degree Days 29 (Base 50)    
Moisture  
Dew Point 70 °F    
Average Humidity 72    
Maximum Humidity 100    
Minimum Humidity 43    
Precipitation  
Precipitation T in 0.13 in 2.83 in (2004)
Month to date precipitation 3.28 1.69  
Year to date precipitation 34.64 22.49  
Sea Level Pressure  
Sea Level Pressure 29.79 in    
Wind  
Wind Speed 7 mph (WNW)    
Max Wind Speed 18 mph    
Max Gust Speed 25 mph    
Visibility 9 miles    
Events      
T = Trace of Precipitation, MM = Missing Value Source: NWS Daily Summary

Daily Weather History Graph

Daily Weather History Graph

Search for Another Location

Airport or City:

Astronomy

Jul. 12, 2019 Rise Set
Actual Time 5:44 AM EDT 8:34 PM EDT
Civil Twilight 5:11 AM EDT 9:06 PM EDT
Nautical Twilight 4:30 AM EDT 9:47 PM EDT
Astronomical Twilight 3:44 AM EDT 10:34 PM EDT
Moon 4:50 PM EDT (7/12) 2:26 AM EDT (7/12)
Length of Visible Light 15h 55m
Length of Day
14h 50m
Waxing Gibbous, 82% of the Moon is Illuminated
Jul 12
Waxing Gibbous
Jul 16
Full
Jul 24
Last Quarter
Jul 31
New
Aug 7
First Quarter

Hourly Weather History & Observations

Time (EDT) Temp. Heat Index Dew Point Humidity Pressure Visibility Wind Dir Wind Speed Gust Speed Precip Events Conditions
12:26 AM 72.0 °F - 72.0 °F 100% 29.76 in 10.0 mi Calm Calm - N/A   Overcast
12:54 AM 73.0 °F - 72.0 °F 96% 29.77 in 10.0 mi Calm Calm - N/A   Overcast
1:54 AM 73.0 °F - 73.0 °F 100% 29.76 in 10.0 mi SW 4.6 mph - N/A   Overcast
2:33 AM 73.0 °F - 73.0 °F 100% 29.75 in 10.0 mi West 3.5 mph - N/A   Overcast
2:54 AM 73.0 °F - 73.0 °F 100% 29.75 in 10.0 mi Calm Calm - N/A   Overcast
3:37 AM 73.0 °F - 73.0 °F 100% 29.74 in 10.0 mi West 6.9 mph - 0.00 in   Overcast
3:54 AM 73.0 °F - 73.0 °F 100% 29.75 in 10.0 mi WNW 4.6 mph - 0.00 in   Overcast
4:33 AM 72.0 °F - 72.0 °F 100% 29.74 in 10.0 mi West 3.5 mph - N/A   Mostly Cloudy
4:54 AM 72.0 °F - 72.0 °F 100% 29.75 in 10.0 mi West 4.6 mph - N/A   Mostly Cloudy
5:05 AM 72.0 °F - 72.0 °F 100% 29.74 in 10.0 mi West 3.5 mph - N/A   Mostly Cloudy
5:16 AM 72.0 °F - 72.0 °F 100% 29.74 in 10.0 mi West 3.5 mph - N/A   Mostly Cloudy
5:54 AM 72.0 °F - 72.0 °F 100% 29.76 in 10.0 mi Calm Calm - N/A   Mostly Cloudy
6:27 AM 71.1 °F - 71.1 °F 100% 29.76 in 10.0 mi Calm Calm - N/A   Scattered Clouds
6:54 AM 72.0 °F - 72.0 °F 100% 29.78 in 10.0 mi Calm Calm - N/A   Clear
7:11 AM 73.0 °F - 71.1 °F 93% 29.77 in 2.5 mi West 3.5 mph - N/A   Scattered Clouds
7:49 AM 73.4 °F - 71.6 °F 94% 29.77 in 6.0 mi WNW 5.8 mph - N/A   Mostly Cloudy
7:54 AM 75.0 °F - 72.0 °F 90% 29.78 in 6.0 mi WNW 9.2 mph - N/A   Mostly Cloudy
8:54 AM 75.9 °F - 72.0 °F 87% 29.79 in 6.0 mi West 5.8 mph - N/A   Mostly Cloudy
9:22 AM 78.1 °F - 72.0 °F 81% 29.79 in 6.0 mi WNW 11.5 mph - N/A   Mostly Cloudy
9:54 AM 78.1 °F - 71.1 °F 79% 29.80 in 10.0 mi West 11.5 mph - N/A   Scattered Clouds
10:54 AM 82.0 °F 86.3 °F 71.1 °F 69% 29.80 in 10.0 mi West 9.2 mph - N/A   Scattered Clouds
11:54 AM 82.9 °F 87.0 °F 70.0 °F 65% 29.80 in 10.0 mi West 12.7 mph 17.3 mph N/A   Mostly Cloudy
12:54 PM 86.0 °F 90.1 °F 69.1 °F 57% 29.79 in 10.0 mi West 11.5 mph - N/A   Scattered Clouds
1:54 PM 87.1 °F 89.2 °F 66.0 °F 49% 29.79 in 10.0 mi WNW 13.8 mph - N/A   Scattered Clouds
2:54 PM 87.1 °F 89.2 °F 66.0 °F 49% 29.78 in 10.0 mi NW 13.8 mph - N/A   Scattered Clouds
3:54 PM 86.0 °F 87.6 °F 64.9 °F 49% 29.78 in 10.0 mi NW 12.7 mph - N/A   Scattered Clouds
4:54 PM 87.1 °F 87.8 °F 63.0 °F 44% 29.79 in 10.0 mi NW 12.7 mph - N/A   Scattered Clouds
5:54 PM 86.0 °F 86.3 °F 62.1 °F 44% 29.80 in 10.0 mi NW 12.7 mph - N/A   Scattered Clouds
6:54 PM 84.0 °F 85.8 °F 64.9 °F 53% 29.81 in 10.0 mi North 8.1 mph - N/A   Partly Cloudy
7:54 PM 81.0 °F 83.0 °F 66.0 °F 60% 29.83 in 10.0 mi North 4.6 mph - N/A   Partly Cloudy
8:54 PM 79.0 °F - 66.9 °F 66% 29.85 in 10.0 mi Calm Calm - N/A   Partly Cloudy
9:54 PM 75.9 °F - 68.0 °F 76% 29.88 in 10.0 mi Calm Calm - N/A   Partly Cloudy
10:54 PM 73.9 °F - 69.1 °F 85% 29.89 in 10.0 mi NW 3.5 mph - N/A   Scattered Clouds
11:54 PM 71.1 °F - 69.1 °F 93% 29.90 in 10.0 mi Calm Calm - N/A   Clear